Location: Hilton Head Island
(32.2163°N, 80.7526°W)
Time: 12:08:45
(UTC-05:00)

Vanguard 2 - Pass Details

Date: 22 February 2026
Orbit: 553 x 2896 km, 32.9° (Epoch: 6 March)

Event Time Altitude Azimuth Distance (km) Brightness Sun altitude
Exits shadow 04:15:21 52° 127° (SE) 1,291 8.7 -35.1°
Drops below altitude 10° 04:19:55 10° 84° (E) 2,436 10.9 -34.1°
Sets 04:21:58 0° 80° (E) 3,185 11.8 -33.7°
